Location: Feydey
(46.3431°N, 7.0106°E)
Time: 07:34:42
(UTC+00:00)

Terra - Pass Details

Date: 20 June 2021
Orbit: 701 x 703 km, 98.2° (Epoch: 05 August)

Event Time Altitude Azimuth Distance (km) Brightness Sun altitude
Exits shadow 22:19:57 16° 219° (SW) 1,800 3.6 -18.2°
Maximum altitude 22:22:44 27° 266° (W) 1,356 3.4 -18.4°
Drops below altitude 10° 22:26:46 10° 323° (NW) 2,181 5.4 -18.6°
Sets 22:29:22 0° 336° (NNW) 3,104 6.8 -18.7°
